Content
SEND FEEDBACK

Daily
Averages
Monthly
Summary
Canada

MONTREAL, QUEBEC


Home > North America > Canada > Quebec
Elevation: 35 meters     Latitude: 45 28N     Longitude: 073 45W

WEATHER
 
SELECT A DAY
Number of Records: 198,177;   Date Range: 1/1/95 - 7/30/14
 
SHARE

PRINT THIS DATA

[ ← Previous Day ]
WEATHER ALMANAC - 3 JANUARY, 2013
[ Next Day → ]
[ °F ]   °C
Weather ElementAverageHighLow
Temperature-17.9 °C-13 °C (9:00 pm)-23.3 °C (7:00 am)
Dewpoint-22.2 °C-16 °C (9:00 pm)-28 °C (5:00 am)
Humidity67.4 %85 % (10:00 pm)51 % (1:00 am)
Barometer950.2 hPa1026.1 hPa (2:00 am) (7:00 pm)
Wind Speed11.4 km/h137.1 km/h (1:00 am)
Weather ElementAverage
Visibility22.5 km
Wind DirectionSSW (195.9 °)

Weather ElementTotal
Precipitation---
Heating Degree Days36.5 (Base 18.3)
Averaged from 29 records on 3 January, 2013
WEATHER CONDITIONS BREAKOUT
WIND DIRECTION BREAKOUT
WEATHER BY HOUR - 3 JANUARY, 2013
[ °F ]   °C
Local TimeTemperatureDewpointHumidityBarometerVisibilityWind DirectionWind SpeedGust SpeedPrecipitationEventsConditions
1:00 AM-21.1 °C-26.1 °C51 %1025.7 hPa24.1 kmSW (230°)137.1 km/hScattered Clouds
1:00 AM-21 °C-26 °C65 %1025.7 hPa24.1 kmNW (320°)3.7 km/hOvercast
2:00 AM-21 °C-26 °C65 %1026.1 hPa24.1 kmSW (220°)13 km/hOvercast
3:00 AM-21 °C-26 °C65 %1026.1 hPa24.1 kmWest (260°)3.7 km/hOvercast
4:00 AM-21 °C-26 °C65 %1025.4 hPa24.1 kmWSW (240°)3.7 km/hMostly Cloudy
5:00 AM-23 °C-28 °C65 %1024.7 hPa24.1 kmWSW (240°)5.6 km/hMostly Cloudy
6:00 AM-22 °C-26 °C71 %1024.7 hPa24.1 kmWSW (240°)5.6 km/hOvercast
7:00 AM-23 °C-27 °C71 %1024.4 hPa24.1 kmWSW (240°)5.6 km/hMostly Cloudy
7:00 AM-23.3 °C-26.7 °C63 %1024.4 hPa24.1 kmWSW (240°)5.6 km/hScattered Clouds
8:00 AM-22 °C-27 °C65 %1024 hPa48.3 kmWSW (240°)5.6 km/hMostly Cloudy
9:00 AM-20 °C-25 °C65 %1023.7 hPa48.3 kmWSW (240°)5.6 km/hScattered Clouds
10:00 AM-18 °C-25 °C55 %1023.4 hPa48.3 kmSW (220°)9.3 km/hScattered Clouds
11:00 AM-18 °C-24 °C60 %1022.4 hPa48.3 kmSSW (210°)11.1 km/hMostly Cloudy
12:00 PM-18 °C-24 °C60 %1021.3 hPa24.1 kmSW (230°)9.3 km/hMostly Cloudy
1:00 PM-17 °C-21 °C72 %1020.3 hPa24.1 kmSW (220°)9.3 km/hOvercast
1:00 PM-17.2 °C-21.7 °C57 %1020.3 hPa24.1 kmSW (220°)9.3 km/hOvercast
1:23 PM-17 °C-17.8 °C24.1 kmSSW (210°)3.7 km/hSnowLight Snow
2:00 PM-16 °C-22 °C61 %1019.3 hPa16.1 kmSSW (200°)3.7 km/hSnowLight Snow
3:00 PM-16 °C-21 °C66 %1018.6 hPa12.9 kmSE (140°)5.6 km/hSnowLight Snow
4:00 PM-16 °C-21 °C66 %1017.9 hPa6.4 kmEast (100°)5.6 km/hSnowLight Snow
5:00 PM-15 °C-20 °C66 %1017.3 hPa8 kmEast (100°)5.6 km/hSnowLight Snow
6:00 PM-15 °C-18 °C78 %1016.3 hPa16.1 kmEast (100°)7.4 km/hSnowLight Snow Showers
7:00 PM-14 °C-17 °C79 %1015.6 hPa24.1 kmEast (90°)7.4 km/hSnowLight Snow Showers
7:00 PM-14.4 °C-17.8 °C68 %1015.6 hPa24.1 kmEast (100°)7.4 km/hSnowLight Snow Showers
8:00 PM-14 °C-17 °C79 %1014.6 hPa16.1 kmENE (70°)7.4 km/hSnowLight Snow Showers
9:00 PM-13 °C-16 °C79 %1013.9 hPa8 kmNE (40°)7.4 km/hSnowLight Snow Showers
10:00 PM-14 °C-16 °C85 %1013.2 hPa4.8 kmNNE (20°)9.3 km/hSnowLight Snow
11:00 PM-14 °C-17 °C79 %1012.5 hPa4.8 kmNorth (350°)7.4 km/hSnowLight Snow
11:50 PM-15 °C-17.8 °C3.2 kmNorth (350°)11.1 km/hSnowLight Snow
Hourly data recorded from CYUL, located 0 kilometers away from Montreal, Quebec







STORIES FROM OUR PARTNERS